Weather History for Jackson, KY

Change the Weather History Date:

Tuesday, October 22, 2013

  Actual Average Record
Temperature  
Mean Temperature 48 °F 56 °F  
Max Temperature 55 °F 66 °F 81 °F (1991)
Min Temperature 40 °F 46 °F 26 °F (1987)
Degree Days  
Heating Degree Days 17 9  
Month to date heating degree days 107 151  
Since 1 July heating degree days 137 203  
Cooling Degree Days 0 1  
Month to date cooling degree days 42 28  
Year to date cooling degree days 1068 1149  
Moisture  
Dew Point 41 °F    
Average Humidity 73    
Maximum Humidity 96    
Minimum Humidity 50    
Precipitation  
Precipitation 0.15 in 0.10 in 1.87 in (1990)
Month to date precipitation 1.37 2.19  
Year to date precipitation 45.86 39.20  
Snow  
Snow 0.00 in 0.00 in - ()
Month to date snowfall 0.0 0.0  
Since 1 July snowfall 0.0 0.0  
Since 1 September snowfall 0.0 0.0  
Snow Depth 0.00 in    
Sea Level Pressure  
Sea Level Pressure 29.98 in    
Wind  
Wind Speed 2 mph (West)    
Max Wind Speed 9 mph    
Max Gust Speed 14 mph    
Visibility 8 miles    
Events Rain    
T = Trace of Precipitation, MM = Missing Value Source: NWS Daily Summary

Daily Weather History Graph

Daily Weather History Graph

Search for Another Location

Airport:

Trip Planner

Search our weather history database for the weather conditions in past years. The results will help you decide how hot, cold, wet, or windy it might be!

Date:

Astronomy

Oct. 22, 2013 Rise Set
Actual Time 7:48 AM EDT 6:46 PM EDT
Civil Twilight 7:21 AM EDT 7:12 PM EDT
Nautical Twilight 6:51 AM EDT 7:43 PM EDT
Astronomical Twilight 6:20 AM EDT 8:13 PM EDT
Moon 9:28 PM EDT (10/22) 11:12 AM EDT (10/22)
Length of Visible Light 11h 51m
Length of Day
10h 57m
Waning Gibbous, 87% of the Moon is Illuminated
Oct 22
Waning Gibbous
Oct 26
Last Quarter
Nov 3
New
Nov 10
First Quarter
Nov 17
Full

Hourly Weather History & Observations

Time (EDT) Temp. Windchill Dew Point Humidity Pressure Visibility Wind Dir Wind Speed Gust Speed Precip Events Conditions
12:53 AM 53.1 °F - 42.1 °F 66% 29.94 in 10.0 mi SSW 4.6 mph - N/A   Clear
1:53 AM 52.0 °F - 42.1 °F 69% 29.95 in 10.0 mi SW 3.5 mph - N/A   Clear
2:53 AM 53.1 °F - 43.0 °F 69% 29.96 in 10.0 mi Calm Calm - N/A   Overcast
3:53 AM 53.1 °F - 44.1 °F 71% 29.95 in 10.0 mi WSW 4.6 mph - N/A   Overcast
4:53 AM 52.0 °F - 44.1 °F 74% 29.96 in 10.0 mi West 4.6 mph - 0.00 in Rain Light Rain
5:04 AM 51.8 °F - 44.6 °F 76% 29.98 in 10.0 mi West 8.1 mph - 0.00 in Rain Light Rain
5:38 AM 48.2 °F - 46.4 °F 93% 29.99 in 5.0 mi Variable 4.6 mph - 0.04 in Rain Light Rain
5:51 AM 48.2 °F - 46.4 °F 93% 30.00 in 5.0 mi Variable 5.8 mph - 0.05 in Rain Light Rain
5:53 AM 48.9 °F - 46.0 °F 90% 29.99 in 5.0 mi WNW 5.8 mph - 0.05 in Rain Light Rain
6:03 AM 48.2 °F - 46.4 °F 93% 30.00 in 6.0 mi NW 6.9 mph - 0.01 in Rain Light Rain
6:23 AM 46.4 °F 43.5 °F 44.6 °F 93% 30.00 in 10.0 mi NNW 5.8 mph - 0.02 in Rain Light Rain
6:30 AM 46.4 °F 43.5 °F 44.6 °F 93% 30.00 in 10.0 mi NW 5.8 mph - 0.02 in Rain Light Rain
6:53 AM 46.9 °F - 45.0 °F 93% 29.99 in 7.0 mi Variable 4.6 mph - 0.02 in Rain Light Rain
7:48 AM 44.6 °F 42.2 °F 42.8 °F 93% 30.02 in 8.0 mi Variable 4.6 mph - 0.02 in Rain Light Rain
7:53 AM 45.0 °F 43.5 °F 43.0 °F 93% 30.01 in 8.0 mi Variable 3.5 mph - 0.02 in Rain Light Rain
8:24 AM 44.6 °F 42.2 °F 42.8 °F 93% 30.02 in 5.0 mi NNW 4.6 mph - 0.02 in Rain Light Rain
8:34 AM 44.6 °F - 42.8 °F 93% 30.02 in 5.0 mi Calm Calm - 0.02 in Rain Light Rain
8:53 AM 44.1 °F 42.5 °F 42.1 °F 93% 30.03 in 4.0 mi Variable 3.5 mph - 0.03 in Rain Light Rain
9:46 AM 39.2 °F 35.9 °F 37.4 °F 93% 30.05 in 9.0 mi Variable 4.6 mph - 0.03 in Rain Light Rain
9:53 AM 39.9 °F 37.8 °F 37.0 °F 89% 30.05 in 10.0 mi Variable 3.5 mph - 0.03 in Rain Light Rain
10:21 AM 39.2 °F 37.0 °F 37.4 °F 93% 30.06 in 10.0 mi Variable 3.5 mph - 0.00 in Rain Light Rain
10:51 AM 41.0 °F - 37.4 °F 87% 30.05 in 9.0 mi Calm Calm - 0.00 in   Overcast
10:53 AM 41.0 °F - 39.0 °F 93% 30.05 in 8.0 mi Calm Calm - 0.00 in   Overcast
11:21 AM 41.0 °F - 37.4 °F 87% 30.05 in 9.0 mi Calm Calm - N/A   Overcast
11:32 AM 42.8 °F - 39.2 °F 87% 30.04 in 10.0 mi Calm Calm - N/A   Overcast
11:53 AM 45.0 °F - 39.9 °F 82% 30.04 in 10.0 mi Calm Calm - N/A   Overcast
12:53 PM 45.0 °F - 37.0 °F 74% 30.03 in 10.0 mi Calm Calm - N/A   Clear
1:53 PM 48.0 °F - 36.0 °F 63% 29.98 in 10.0 mi Calm Calm - N/A   Clear
2:53 PM 52.0 °F - 37.9 °F 59% 29.94 in 10.0 mi Calm Calm - N/A   Clear
3:53 PM 54.0 °F - 36.0 °F 51% 29.91 in 10.0 mi Calm Calm - N/A   Clear
4:53 PM 53.1 °F - 35.1 °F 50% 29.90 in 10.0 mi Variable 3.5 mph - N/A   Clear
5:53 PM 52.0 °F - 33.1 °F 49% 29.89 in 10.0 mi Calm Calm - N/A   Clear
6:53 PM 46.9 °F - 39.9 °F 77% 29.90 in 10.0 mi Calm Calm - N/A   Clear
7:53 PM 45.0 °F - 41.0 °F 86% 29.89 in 10.0 mi Calm Calm - N/A   Clear
8:53 PM 43.0 °F - 39.9 °F 89% 29.89 in 10.0 mi Calm Calm - N/A   Clear
9:53 PM 44.1 °F - 42.1 °F 93% 29.90 in 10.0 mi Calm Calm - N/A   Clear
10:38 PM 44.6 °F - 42.8 °F 93% 29.88 in 9.0 mi Calm Calm - N/A   Partly Cloudy
10:53 PM 44.1 °F - 42.1 °F 93% 29.88 in 8.0 mi Calm Calm - N/A   Partly Cloudy
11:53 PM 42.1 °F - 41.0 °F 96% 29.87 in 3.0 mi Calm Calm - N/A   Mostly Cloudy